| time (UTC) | temp F | wind direction | speed knots | gust knots | rain 1hr in | rain 24hr in | rain mn in | humidity % | barometer mb |
| 20260508052032 | 61 | 237 | 0.9 | 3.5 | 0.00 | 0.00 | 0.00 | 89 | 1016.5 |
| 20260508051546 | 61 | 218 | 0.9 | 3.5 | 0.00 | 0.00 | 0.00 | 89 | 1016.5 |
| 20260508051032 | 61 | 0 | 0.0 | 1.7 | 0.00 | 0.00 | 0.00 | 89 | 1016.5 |
| 20260508050532 | 61 | 275 | 0.0 | 2.6 | 0.00 | 0.00 | 0.00 | 89 | 1016.4 |
| 20260508050047 | 61 | 287 | 0.9 | 3.5 | 0.00 | 0.00 | 0.00 | 89 | 1016.5 |
| 20260508045531 | 61 | 261 | 0.9 | 3.5 | 0.00 | 0.00 | 0.00 | 89 | 1016.4 |
| 20260508045031 | 61 | 257 | 0.0 | 2.6 | 0.00 | 0.00 | 0.00 | 89 | 1016.4 |
| 20260508044544 | 61 | 269 | 0.9 | 2.6 | 0.00 | 0.00 | 0.00 | 89 | 1016.4 |
| 20260508044032 | 61 | 0 | 0.9 | 2.6 | 0.00 | 0.00 | 0.00 | 89 | 1016.4 |
| 20260508043532 | 61 | 285 | 0.0 | 2.6 | 0.00 | 0.00 | 0.00 | 89 | 1016.3 |
| 20260508043055 | 61 | 299 | 0.0 | 2.6 | 0.00 | 0.00 | 0.00 | 89 | 1016.2 |
| 20260508042533 | 61 | 0 | 0.0 | 3.5 | 0.00 | 0.00 | 0.00 | 88 | 1016.1 |
| 20260508042035 | 61 | 0 | 0.9 | 3.5 | 0.00 | 0.00 | 0.00 | 88 | 1016.0 |
| 20260508041552 | 61 | 225 | 0.9 | 2.6 | 0.00 | 0.00 | 0.00 | 88 | 1015.9 |
| 20260508041032 | 61 | 244 | 0.9 | 2.6 | 0.00 | 0.00 | 0.00 | 89 | 1015.8 |
| 20260508040532 | 61 | 269 | 0.9 | 3.5 | 0.00 | 0.00 | 0.00 | 88 | 1015.8 |
| 20260508040050 | 61 | 271 | 1.7 | 3.5 | 0.00 | 0.00 | 0.00 | 88 | 1015.7 |
| 20260508035532 | 61 | 0 | 0.9 | 4.3 | 0.00 | 0.00 | 0.00 | 88 | 1015.7 |
| 20260508035033 | 61 | 294 | 1.7 | 4.3 | 0.00 | 0.00 | 0.00 | 88 | 1015.6 |
| 20260508034548 | 61 | 232 | 1.7 | 3.5 | 0.00 | 0.00 | 0.00 | 88 | 1015.6 |
| 20260508034032 | 61 | 225 | 0.9 | 3.5 | 0.00 | 0.00 | 0.00 | 88 | 1015.5 |
| 20260508033531 | 61 | 260 | 1.7 | 3.5 | 0.00 | 0.00 | 0.00 | 88 | 1015.4 |
| 20260508033041 | 61 | 0 | 0.9 | 3.5 | 0.00 | 0.00 | 0.00 | 88 | 1015.3 |
| 20260508032532 | 61 | 238 | 0.9 | 3.5 | 0.00 | 0.00 | 0.00 | 88 | 1015.3 |
| 20260508032032 | 61 | 279 | 0.9 | 3.5 | 0.00 | 0.00 | 0.00 | 88 | 1015.2 |
| 20260508031550 | 61 | 304 | 0.9 | 3.5 | 0.00 | 0.00 | 0.00 | 87 | 1015.2 |
| 20260508031032 | 61 | 242 | 0.9 | 2.6 | 0.00 | 0.00 | 0.00 | 87 | 1015.1 |
| 20260508030532 | 61 | 284 | 0.9 | 3.5 | 0.00 | 0.00 | 0.00 | 87 | 1015.1 |
| 20260508030048 | 61 | 291 | 0.9 | 3.5 | 0.00 | 0.00 | 0.00 | 87 | 1015.1 |
| 20260508025533 | 61 | 321 | 1.7 | 3.5 | 0.00 | 0.00 | 0.00 | 87 | 1015.0 |
| 20260508025034 | 61 | 268 | 0.9 | 2.6 | 0.00 | 0.00 | 0.00 | 87 | 1015.0 |
| 20260508024547 | 61 | 271 | 0.9 | 2.6 | 0.00 | 0.00 | 0.00 | 86 | 1015.0 |
| 20260508024032 | 61 | 271 | 0.9 | 3.5 | 0.00 | 0.00 | 0.00 | 86 | 1014.9 |
| 20260508023532 | 61 | 265 | 1.7 | 4.3 | 0.00 | 0.00 | 0.00 | 86 | 1014.9 |
| 20260508023049 | 61 | 248 | 1.7 | 4.3 | 0.00 | 0.00 | 0.00 | 86 | 1014.8 |
| 20260508022531 | 61 | 323 | 1.7 | 4.3 | 0.00 | 0.00 | 0.00 | 85 | 1014.7 |
| 20260508022033 | 62 | 252 | 0.9 | 3.5 | 0.00 | 0.00 | 0.00 | 85 | 1014.7 |
| 20260508021555 | 62 | 241 | 0.9 | 2.6 | 0.00 | 0.00 | 0.00 | 85 | 1014.6 |
| 20260508021032 | 62 | 298 | 0.9 | 2.6 | 0.00 | 0.00 | 0.00 | 85 | 1014.6 |
| 20260508020532 | 62 | 275 | 1.7 | 2.6 | 0.00 | 0.00 | 0.00 | 85 | 1014.6 |
| 20260508020050 | 62 | 309 | 0.9 | 5.2 | 0.00 | 0.00 | 0.00 | 84 | 1014.6 |
| 20260508015532 | 62 | 261 | 1.7 | 5.2 | 0.00 | 0.00 | 0.00 | 84 | 1014.6 |
| 20260508015032 | 62 | 295 | 0.9 | 4.3 | 0.00 | 0.00 | 0.00 | 83 | 1014.5 |
| 20260508014541 | 63 | 287 | 1.7 | 4.3 | 0.00 | 0.00 | 0.00 | 83 | 1014.6 |
| 20260508014033 | 63 | 301 | 1.7 | 4.3 | 0.00 | 0.00 | 0.00 | 82 | 1014.5 |
| 20260508013532 | 63 | 267 | 0.9 | 3.5 | 0.00 | 0.00 | 0.00 | 82 | 1014.6 |
| 20260508013054 | 63 | 282 | 1.7 | 3.5 | 0.00 | 0.00 | 0.00 | 82 | 1014.5 |
| 20260508012532 | 63 | 267 | 0.9 | 3.5 | 0.00 | 0.00 | 0.00 | 82 | 1014.6 |
| 20260508012032 | 64 | 280 | 0.9 | 4.3 | 0.00 | 0.00 | 0.00 | 81 | 1014.5 |
| 20260508011554 | 64 | 240 | 0.9 | 4.3 | 0.00 | 0.00 | 0.00 | 81 | 1014.5 |
| 20260508011031 | 64 | 284 | 0.9 | 4.3 | 0.00 | 0.00 | 0.00 | 81 | 1014.6 |
| 20260508010532 | 64 | 225 | 0.9 | 4.3 | 0.00 | 0.00 | 0.00 | 81 | 1014.5 |
| 20260508010050 | 64 | 294 | 2.6 | 5.2 | 0.00 | 0.00 | 0.00 | 81 | 1014.5 |
| 20260508005531 | 64 | 281 | 2.6 | 5.2 | 0.00 | 0.00 | 0.00 | 81 | 1014.6 |
| 20260508005034 | 64 | 238 | 1.7 | 4.3 | 0.00 | 0.00 | 0.00 | 80 | 1014.6 |
| 20260508004545 | 65 | 242 | 1.7 | 4.3 | 0.00 | 0.00 | 0.00 | 80 | 1014.5 |
| 20260508004035 | 65 | 285 | 1.7 | 4.3 | 0.00 | 0.00 | 0.00 | 80 | 1014.5 |
| 20260508003532 | 65 | 264 | 1.7 | 4.3 | 0.00 | 0.00 | 0.00 | 80 | 1014.5 |
| 20260508003043 | 65 | 281 | 0.9 | 6.1 | 0.00 | 0.00 | 0.00 | 81 | 1014.5 |
| 20260508002532 | 64 | 260 | 2.6 | 6.1 | 0.00 | 0.00 | 0.00 | 81 | 1014.6 |
| 20260508002032 | 64 | 290 | 0.9 | 5.2 | 0.00 | 0.00 | 0.00 | 81 | 1014.6 |
| 20260508001611 | 64 | 325 | 1.7 | 6.1 | 0.00 | 0.00 | 0.00 | 81 | 1014.6 |
| 20260508001032 | 64 | 312 | 1.7 | 6.1 | 0.00 | 0.00 | 0.00 | 81 | 1014.6 |
| 20260508000533 | 64 | 285 | 2.6 | 6.1 | 0.00 | 0.00 | 0.00 | 80 | 1014.6 |
| 20260508000050 | 65 | 248 | 1.7 | 6.1 | 0.00 | 0.00 | 0.00 | 80 | 1014.7 |
| 20260507235533 | 65 | 305 | 0.9 | 6.1 | 0.00 | 0.00 | 0.00 | 80 | 1014.8 |
| 20260507235031 | 65 | 308 | 1.7 | 6.1 | 0.00 | 0.00 | 0.00 | 80 | 1014.8 |
| 20260507234549 | 65 | 313 | 2.6 | 6.1 | 0.00 | 0.00 | 0.00 | 80 | 1014.7 |
| 20260507234056 | 65 | 265 | 0.9 | 6.1 | 0.00 | 0.00 | 0.00 | 80 | 1014.7 |
| 20260507233533 | 65 | 306 | 2.6 | 7.0 | 0.00 | 0.00 | 0.00 | 80 | 1014.7 |
| 20260507233048 | 65 | 315 | 2.6 | 7.0 | 0.00 | 0.00 | 0.00 | 80 | 1014.7 |
| 20260507232531 | 65 | 292 | 2.6 | 7.0 | 0.00 | 0.00 | 0.00 | 80 | 1014.7 |
| 20260507232034 | 65 | 269 | 2.6 | 8.7 | 0.00 | 0.00 | 0.00 | 80 | 1014.6 |
| 20260507231545 | 65 | 5 | 2.6 | 8.7 | 0.00 | 0.00 | 0.00 | 80 | 1014.7 |
| 20260507231032 | 65 | 322 | 1.7 | 7.0 | 0.00 | 0.00 | 0.00 | 80 | 1014.6 |
| 20260507230532 | 65 | 233 | 2.6 | 7.0 | 0.00 | 0.00 | 0.00 | 80 | 1014.6 |
| 20260507230044 | 66 | 273 | 2.6 | 7.0 | 0.00 | 0.00 | 0.00 | 79 | 1014.6 |
| 20260507225532 | 66 | 249 | 2.6 | 7.0 | 0.00 | 0.00 | 0.00 | 79 | 1014.7 |
| 20260507225032 | 66 | 287 | 2.6 | 7.0 | 0.00 | 0.00 | 0.00 | 79 | 1014.7 |
| 20260507224552 | 66 | 312 | 1.7 | 7.0 | 0.00 | 0.00 | 0.00 | 79 | 1014.7 |
| 20260507224032 | 66 | 236 | 2.6 | 9.6 | 0.00 | 0.00 | 0.00 | 79 | 1014.8 |
| 20260507223532 | 66 | 273 | 2.6 | 9.6 | 0.00 | 0.00 | 0.00 | 79 | 1014.9 |
| 20260507223050 | 66 | 271 | 4.3 | 9.6 | 0.00 | 0.00 | 0.00 | 78 | 1014.9 |
| 20260507222532 | 66 | 263 | 2.6 | 7.0 | 0.00 | 0.00 | 0.00 | 79 | 1014.9 |
| 20260507222032 | 66 | 229 | 3.5 | 7.0 | 0.00 | 0.00 | 0.00 | 78 | 1014.9 |
| 20260507221543 | 66 | 278 | 1.7 | 7.8 | 0.00 | 0.00 | 0.00 | 78 | 1015.0 |
| 20260507221031 | 67 | 265 | 1.7 | 7.8 | 0.00 | 0.00 | 0.00 | 77 | 1015.0 |
| 20260507220531 | 67 | 277 | 2.6 | 7.0 | 0.00 | 0.00 | 0.00 | 77 | 1015.1 |
| 20260507220054 | 67 | 284 | 2.6 | 8.7 | 0.00 | 0.00 | 0.00 | 77 | 1015.1 |
| 20260507215535 | 67 | 201 | 3.5 | 8.7 | 0.00 | 0.00 | 0.00 | 77 | 1015.1 |
| 20260507215031 | 67 | 299 | 3.5 | 9.6 | 0.00 | 0.00 | 0.00 | 77 | 1015.1 |
| 20260507214552 | 67 | 265 | 4.3 | 9.6 | 0.00 | 0.00 | 0.00 | 77 | 1015.2 |
| 20260507214033 | 67 | 283 | 2.6 | 8.7 | 0.00 | 0.00 | 0.00 | 77 | 1015.2 |
| 20260507213531 | 67 | 272 | 3.5 | 8.7 | 0.00 | 0.00 | 0.00 | 77 | 1015.3 |
| 20260507213049 | 68 | 293 | 3.5 | 7.8 | 0.00 | 0.00 | 0.00 | 76 | 1015.3 |
| 20260507212531 | 68 | 272 | 3.5 | 7.8 | 0.00 | 0.00 | 0.00 | 76 | 1015.2 |
| 20260507212031 | 68 | 242 | 3.5 | 7.8 | 0.00 | 0.00 | 0.00 | 75 | 1015.3 |
| 20260507211551 | 68 | 242 | 4.3 | 7.0 | 0.00 | 0.00 | 0.00 | 75 | 1015.3 |
| 20260507211034 | 69 | 284 | 3.5 | 7.8 | 0.00 | 0.00 | 0.00 | 76 | 1015.4 |
| 20260507210532 | 68 | 256 | 2.6 | 7.8 | 0.00 | 0.00 | 0.00 | 76 | 1015.4 |
| 20260507210047 | 68 | 254 | 3.5 | 10.4 | 0.00 | 0.00 | 0.00 | 76 | 1015.4 |
| 20260507205535 | 68 | 283 | 3.5 | 10.4 | 0.00 | 0.00 | 0.00 | 77 | 1015.5 |
| 20260507205034 | 68 | 213 | 4.3 | 8.7 | 0.00 | 0.00 | 0.00 | 76 | 1015.5 |
| 20260507204550 | 68 | 282 | 3.5 | 8.7 | 0.00 | 0.00 | 0.00 | 76 | 1015.6 |
| 20260507204034 | 68 | 277 | 4.3 | 10.4 | 0.00 | 0.00 | 0.00 | 77 | 1015.7 |
| 20260507203533 | 68 | 294 | 4.3 | 10.4 | 0.00 | 0.00 | 0.00 | 76 | 1015.5 |
| 20260507203045 | 68 | 219 | 4.3 | 9.6 | 0.00 | 0.00 | 0.00 | 76 | 1015.6 |
| 20260507202531 | 68 | 252 | 4.3 | 9.6 | 0.00 | 0.00 | 0.00 | 77 | 1015.6 |
| 20260507202031 | 68 | 308 | 4.3 | 8.7 | 0.00 | 0.00 | 0.00 | 77 | 1015.7 |
| 20260507201554 | 68 | 292 | 4.3 | 8.7 | 0.00 | 0.00 | 0.00 | 78 | 1015.7 |
| 20260507201031 | 68 | 242 | 5.2 | 8.7 | 0.00 | 0.00 | 0.00 | 77 | 1015.7 |
| 20260507200532 | 68 | 248 | 5.2 | 8.7 | 0.00 | 0.00 | 0.00 | 76 | 1015.7 |
| 20260507200046 | 68 | 244 | 3.5 | 8.7 | 0.00 | 0.00 | 0.00 | 77 | 1015.7 |
| 20260507195533 | 68 | 223 | 4.3 | 8.7 | 0.00 | 0.00 | 0.00 | 76 | 1015.7 |
| 20260507195033 | 68 | 296 | 3.5 | 8.7 | 0.00 | 0.00 | 0.00 | 76 | 1015.6 |
| 20260507194552 | 68 | 250 | 4.3 | 7.0 | 0.00 | 0.00 | 0.00 | 77 | 1015.7 |
| 20260507194031 | 68 | 298 | 3.5 | 7.0 | 0.00 | 0.00 | 0.00 | 77 | 1015.7 |
| 20260507193531 | 68 | 273 | 2.6 | 7.8 | 0.00 | 0.00 | 0.00 | 78 | 1015.6 |
| 20260507193054 | 67 | 243 | 3.5 | 8.7 | 0.00 | 0.00 | 0.00 | 77 | 1015.7 |
| 20260507192532 | 67 | 286 | 3.5 | 8.7 | 0.00 | 0.00 | 0.00 | 79 | 1015.7 |
| 20260507192031 | 66 | 252 | 3.5 | 9.6 | 0.00 | 0.00 | 0.00 | 79 | 1015.8 |
| 20260507191553 | 67 | 324 | 4.3 | 9.6 | 0.00 | 0.00 | 0.00 | 79 | 1015.8 |
| 20260507191031 | 66 | 256 | 4.3 | 8.7 | 0.00 | 0.00 | 0.00 | 78 | 1015.8 |
| 20260507190531 | 66 | 288 | 4.3 | 8.7 | 0.00 | 0.00 | 0.00 | 78 | 1015.9 |
| 20260507190057 | 67 | 277 | 3.5 | 7.8 | 0.00 | 0.00 | 0.00 | 79 | 1015.9 |
| 20260507185532 | 67 | 263 | 4.3 | 8.7 | 0.00 | 0.00 | 0.00 | 80 | 1016.0 |
| 20260507185035 | 67 | 306 | 2.6 | 8.7 | 0.00 | 0.00 | 0.00 | 80 | 1016.1 |
| 20260507184554 | 66 | 259 | 4.3 | 8.7 | 0.00 | 0.00 | 0.00 | 79 | 1016.2 |
| 20260507184031 | 66 | 292 | 4.3 | 8.7 | 0.00 | 0.00 | 0.00 | 79 | 1016.2 |
| 20260507183531 | 66 | 225 | 5.2 | 8.7 | 0.00 | 0.00 | 0.00 | 79 | 1016.2 |
| 20260507183052 | 66 | 288 | 3.5 | 7.0 | 0.00 | 0.00 | 0.00 | 79 | 1016.3 |
| 20260507182532 | 66 | 294 | 3.5 | 7.8 | 0.00 | 0.00 | 0.00 | 79 | 1016.3 |
| 20260507182033 | 66 | 273 | 3.5 | 7.8 | 0.00 | 0.00 | 0.00 | 79 | 1016.2 |
| 20260507181543 | 66 | 266 | 3.5 | 7.0 | 0.00 | 0.00 | 0.00 | 78 | 1016.2 |
| 20260507181035 | 66 | 319 | 2.6 | 7.0 | 0.00 | 0.00 | 0.00 | 79 | 1016.3 |
| 20260507180536 | 66 | 242 | 2.6 | 7.0 | 0.00 | 0.00 | 0.00 | 80 | 1016.3 |
| 20260507180047 | 66 | 303 | 2.6 | 6.1 | 0.00 | 0.00 | 0.00 | 79 | 1016.2 |
| 20260507175535 | 65 | 267 | 2.6 | 6.1 | 0.00 | 0.00 | 0.00 | 79 | 1016.3 |
| 20260507175035 | 66 | 259 | 1.7 | 6.1 | 0.00 | 0.00 | 0.00 | 80 | 1016.4 |
| 20260507174552 | 65 | 302 | 2.6 | 6.1 | 0.00 | 0.00 | 0.00 | 80 | 1016.4 |
| 20260507174036 | 65 | 297 | 1.7 | 6.1 | 0.00 | 0.00 | 0.00 | 80 | 1016.4 |
| 20260507173539 | 65 | 231 | 2.6 | 6.1 | 0.00 | 0.00 | 0.00 | 80 | 1016.4 |
| 20260507173047 | 65 | 312 | 1.7 | 6.1 | 0.00 | 0.00 | 0.00 | 80 | 1016.3 |
| 20260507172536 | 65 | 235 | 2.6 | 6.1 | 0.00 | 0.00 | 0.00 | 81 | 1016.3 |
| 20260507172034 | 65 | 228 | 2.6 | 7.8 | 0.00 | 0.00 | 0.00 | 81 | 1016.4 |
| 20260507171545 | 64 | 229 | 0.9 | 7.8 | 0.00 | 0.00 | 0.00 | 81 | 1016.3 |
| 20260507171035 | 64 | 327 | 1.7 | 6.1 | 0.00 | 0.00 | 0.00 | 82 | 1016.4 |
| 20260507170535 | 64 | 269 | 1.7 | 7.0 | 0.00 | 0.00 | 0.00 | 82 | 1016.5 |
| 20260507170052 | 64 | 215 | 1.7 | 7.0 | 0.00 | 0.00 | 0.00 | 81 | 1016.4 |
| 20260507165534 | 64 | 198 | 2.6 | 5.2 | 0.00 | 0.00 | 0.00 | 81 | 1016.5 |
| 20260507165031 | 64 | 0 | 0.9 | 5.2 | 0.00 | 0.00 | 0.00 | 82 | 1016.4 |
| 20260507164548 | 64 | 248 | 1.7 | 7.0 | 0.00 | 0.00 | 0.00 | 83 | 1016.5 |
| 20260507164032 | 64 | 313 | 1.7 | 7.0 | 0.00 | 0.00 | 0.00 | 83 | 1016.5 |
| 20260507163536 | 63 | 284 | 0.0 | 0.9 | 0.00 | 0.00 | 0.00 | 84 | 1016.5 |
| 20260507163047 | 63 | 0 | 0.0 | 0.9 | 0.00 | 0.00 | 0.00 | 84 | 1016.6 |
| 20260507162535 | 63 | 0 | 0.0 | 0.9 | 0.00 | 0.00 | 0.00 | 84 | 1016.6 |
| 20260507162035 | 63 | 0 | 0.0 | 0.9 | 0.00 | 0.00 | 0.00 | 84 | 1016.5 |
| 20260507161545 | 62 | 0 | 0.0 | 0.0 | 0.00 | 0.00 | 0.00 | 84 | 1016.6 |
| 20260507161039 | 62 | 0 | 0.0 | 0.0 | 0.00 | 0.00 | 0.00 | 84 | 1016.6 |
| 20260507160535 | 62 | 0 | 0.0 | 0.0 | 0.00 | 0.00 | 0.00 | 85 | 1016.5 |
| 20260507160054 | 62 | 0 | 0.0 | 0.0 | 0.00 | 0.00 | 0.00 | 85 | 1016.5 |
| 20260507155536 | 62 | 0 | 0.0 | 0.0 | 0.00 | 0.00 | 0.00 | 85 | 1016.6 |
| 20260507155032 | 62 | 0 | 0.0 | 0.0 | 0.00 | 0.00 | 0.00 | 86 | 1016.6 |
| 20260507154550 | 62 | 0 | 0.0 | 0.0 | 0.00 | 0.00 | 0.00 | 86 | 1016.7 |
| 20260507154033 | 62 | 0 | 0.0 | 0.0 | 0.00 | 0.00 | 0.00 | 86 | 1016.6 |
| 20260507153531 | 62 | 0 | 0.0 | 0.0 | 0.00 | 0.00 | 0.00 | 87 | 1016.6 |
| 20260507153057 | 61 | 0 | 0.0 | 0.0 | 0.00 | 0.00 | 0.00 | 87 | 1016.6 |
| 20260507152537 | 61 | 0 | 0.0 | 0.0 | 0.00 | 0.00 | 0.00 | 88 | 1016.5 |
| 20260507152034 | 61 | 0 | 0.0 | 0.0 | 0.00 | 0.00 | 0.00 | 88 | 1016.6 |
| 20260507151547 | 61 | 0 | 0.0 | 0.0 | 0.00 | 0.00 | 0.00 | 89 | 1016.6 |
| 20260507151035 | 61 | 0 | 0.0 | 0.0 | 0.00 | 0.00 | 0.00 | 89 | 1016.6 |
| 20260507150535 | 61 | 0 | 0.0 | 0.0 | 0.00 | 0.00 | 0.00 | 90 | 1016.5 |
| 20260507150048 | 61 | 0 | 0.0 | 0.0 | 0.00 | 0.00 | 0.00 | 90 | 1016.5 |
| 20260507145535 | 60 | 0 | 0.0 | 0.0 | 0.00 | 0.00 | 0.00 | 90 | 1016.5 |
| 20260507145035 | 60 | 0 | 0.0 | 0.0 | 0.00 | 0.00 | 0.00 | 90 | 1016.5 |
| 20260507144550 | 60 | 0 | 0.0 | 0.0 | 0.00 | 0.00 | 0.00 | 90 | 1016.5 |
| 20260507144037 | 60 | 0 | 0.0 | 0.0 | 0.00 | 0.00 | 0.00 | 90 | 1016.4 |
| 20260507143535 | 60 | 0 | 0.0 | 0.0 | 0.00 | 0.00 | 0.00 | 91 | 1016.3 |
| 20260507143048 | 60 | 0 | 0.0 | 0.0 | 0.00 | 0.00 | 0.00 | 91 | 1016.3 |
| 20260507142532 | 59 | 0 | 0.0 | 0.0 | 0.00 | 0.00 | 0.00 | 91 | 1016.3 |
| 20260507142032 | 59 | 0 | 0.0 | 0.0 | 0.00 | 0.00 | 0.00 | 91 | 1016.2 |
| 20260507141553 | 59 | 0 | 0.0 | 0.0 | 0.00 | 0.00 | 0.00 | 91 | 1016.2 |
| 20260507141035 | 59 | 0 | 0.0 | 0.0 | 0.00 | 0.00 | 0.00 | 91 | 1016.1 |
| 20260507140534 | 59 | 0 | 0.0 | 0.0 | 0.00 | 0.00 | 0.00 | 91 | 1016.2 |
| 20260507140051 | 59 | 0 | 0.0 | 0.0 | 0.00 | 0.00 | 0.00 | 91 | 1016.2 |
| 20260507135535 | 58 | 0 | 0.0 | 0.0 | 0.00 | 0.00 | 0.00 | 91 | 1016.1 |
| 20260507135035 | 58 | 0 | 0.0 | 0.0 | 0.00 | 0.00 | 0.00 | 91 | 1016.1 |
| 20260507134552 | 58 | 0 | 0.0 | 0.0 | 0.00 | 0.00 | 0.00 | 91 | 1016.0 |
| 20260507134035 | 58 | 0 | 0.0 | 0.0 | 0.00 | 0.00 | 0.00 | 90 | 1016.1 |
| 20260507133536 | 58 | 0 | 0.0 | 0.0 | 0.00 | 0.00 | 0.00 | 91 | 1016.0 |
| 20260507133055 | 58 | 0 | 0.0 | 0.0 | 0.00 | 0.00 | 0.00 | 91 | 1016.0 |
| 20260507132536 | 58 | 0 | 0.0 | 0.0 | 0.00 | 0.00 | 0.00 | 90 | 1016.0 |
| 20260507132033 | 58 | 0 | 0.0 | 0.0 | 0.00 | 0.00 | 0.00 | 90 | 1015.9 |
| 20260507131558 | 58 | 0 | 0.0 | 0.0 | 0.00 | 0.00 | 0.00 | 90 | 1015.9 |
| 20260507131032 | 58 | 0 | 0.0 | 0.0 | 0.00 | 0.00 | 0.00 | 90 | 1016.0 |
| 20260507130538 | 58 | 0 | 0.0 | 0.0 | 0.00 | 0.00 | 0.00 | 90 | 1015.9 |
| 20260507130058 | 57 | 0 | 0.0 | 0.0 | 0.00 | 0.00 | 0.00 | 90 | 1015.9 |
| 20260507125535 | 57 | 0 | 0.0 | 0.0 | 0.00 | 0.00 | 0.00 | 90 | 1015.8 |
| 20260507125034 | 57 | 0 | 0.0 | 0.0 | 0.00 | 0.00 | 0.00 | 90 | 1015.8 |
| 20260507124553 | 57 | 0 | 0.0 | 0.0 | 0.00 | 0.00 | 0.00 | 90 | 1015.8 |
| 20260507124033 | 57 | 0 | 0.0 | 0.0 | 0.00 | 0.00 | 0.00 | 90 | 1015.8 |
| 20260507123534 | 57 | 0 | 0.0 | 0.0 | 0.00 | 0.00 | 0.00 | 89 | 1015.7 |
| 20260507123047 | 57 | 0 | 0.0 | 0.0 | 0.00 | 0.00 | 0.00 | 89 | 1015.7 |
| 20260507122532 | 57 | 0 | 0.0 | 0.0 | 0.00 | 0.00 | 0.00 | 89 | 1015.7 |
| 20260507122032 | 57 | 0 | 0.0 | 0.0 | 0.00 | 0.00 | 0.00 | 89 | 1015.7 |
| 20260507121604 | 57 | 0 | 0.0 | 0.0 | 0.00 | 0.00 | 0.00 | 88 | 1015.6 |
| 20260507121035 | 57 | 0 | 0.0 | 0.0 | 0.00 | 0.00 | 0.00 | 88 | 1015.6 |
| 20260507120532 | 57 | 0 | 0.0 | 0.0 | 0.00 | 0.00 | 0.00 | 88 | 1015.6 |
| 20260507120047 | 57 | 0 | 0.0 | 0.0 | 0.00 | 0.00 | 0.00 | 88 | 1015.6 |
| 20260507115534 | 57 | 0 | 0.0 | 0.0 | 0.00 | 0.00 | 0.00 | 88 | 1015.6 |
| 20260507115033 | 57 | 0 | 0.0 | 0.0 | 0.00 | 0.00 | 0.00 | 88 | 1015.6 |
| 20260507114555 | 57 | 0 | 0.0 | 0.0 | 0.00 | 0.00 | 0.00 | 88 | 1015.7 |
| 20260507114033 | 57 | 0 | 0.0 | 0.0 | 0.00 | 0.00 | 0.00 | 88 | 1015.6 |
| 20260507113533 | 57 | 0 | 0.0 | 0.0 | 0.00 | 0.00 | 0.00 | 88 | 1015.7 |
| 20260507113048 | 58 | 0 | 0.0 | 0.0 | 0.00 | 0.00 | 0.00 | 88 | 1015.6 |
| 20260507112535 | 58 | 0 | 0.0 | 0.0 | 0.00 | 0.00 | 0.00 | 88 | 1015.7 |
| 20260507112032 | 58 | 0 | 0.0 | 0.0 | 0.00 | 0.00 | 0.00 | 88 | 1015.7 |
| 20260507111545 | 58 | 0 | 0.0 | 0.0 | 0.00 | 0.00 | 0.00 | 88 | 1015.8 |
| 20260507111035 | 58 | 0 | 0.0 | 0.0 | 0.00 | 0.00 | 0.00 | 88 | 1015.8 |
| 20260507110535 | 58 | 0 | 0.0 | 0.0 | 0.00 | 0.00 | 0.00 | 88 | 1015.8 |
| 20260507110049 | 58 | 0 | 0.0 | 0.0 | 0.00 | 0.00 | 0.00 | 88 | 1015.8 |
| 20260507105535 | 58 | 0 | 0.0 | 0.0 | 0.00 | 0.00 | 0.00 | 88 | 1015.8 |
| 20260507105036 | 58 | 0 | 0.0 | 0.0 | 0.00 | 0.00 | 0.00 | 88 | 1015.8 |
| 20260507104551 | 59 | 0 | 0.0 | 0.0 | 0.00 | 0.00 | 0.00 | 88 | 1015.9 |
| 20260507104033 | 59 | 0 | 0.0 | 0.0 | 0.00 | 0.00 | 0.00 | 88 | 1015.9 |
| 20260507103537 | 59 | 0 | 0.0 | 0.0 | 0.00 | 0.00 | 0.00 | 88 | 1016.0 |
| 20260507103045 | 59 | 0 | 0.0 | 0.0 | 0.00 | 0.00 | 0.00 | 88 | 1016.0 |
| 20260507102532 | 59 | 0 | 0.0 | 0.0 | 0.00 | 0.00 | 0.00 | 87 | 1016.0 |
| 20260507102032 | 59 | 0 | 0.0 | 0.0 | 0.00 | 0.00 | 0.00 | 87 | 1016.0 |
| 20260507101547 | 59 | 0 | 0.0 | 0.0 | 0.00 | 0.00 | 0.00 | 87 | 1016.0 |
| 20260507101034 | 59 | 0 | 0.0 | 0.0 | 0.00 | 0.00 | 0.00 | 87 | 1016.1 |
| 20260507100539 | 59 | 0 | 0.0 | 0.0 | 0.00 | 0.00 | 0.00 | 87 | 1016.1 |
| 20260507100048 | 59 | 0 | 0.0 | 0.0 | 0.00 | 0.00 | 0.00 | 88 | 1016.2 |
| 20260507095532 | 59 | 0 | 0.0 | 0.0 | 0.00 | 0.00 | 0.00 | 88 | 1016.2 |
| 20260507095032 | 60 | 0 | 0.0 | 0.0 | 0.00 | 0.00 | 0.00 | 88 | 1016.3 |
| 20260507094547 | 60 | 0 | 0.0 | 0.0 | 0.00 | 0.00 | 0.00 | 88 | 1016.3 |
| 20260507094032 | 60 | 0 | 0.0 | 0.9 | 0.00 | 0.00 | 0.00 | 88 | 1016.3 |
| 20260507093534 | 60 | 0 | 0.0 | 0.9 | 0.00 | 0.00 | 0.00 | 88 | 1016.3 |
| 20260507093055 | 60 | 0 | 0.0 | 0.0 | 0.00 | 0.00 | 0.00 | 88 | 1016.3 |
| 20260507092533 | 60 | 0 | 0.0 | 0.0 | 0.00 | 0.00 | 0.00 | 88 | 1016.4 |
| 20260507092034 | 60 | 0 | 0.0 | 0.0 | 0.00 | 0.00 | 0.00 | 88 | 1016.4 |
| 20260507091552 | 60 | 0 | 0.0 | 0.0 | 0.00 | 0.00 | 0.00 | 88 | 1016.5 |
| 20260507091032 | 60 | 0 | 0.0 | 0.0 | 0.00 | 0.00 | 0.00 | 88 | 1016.5 |
| 20260507090534 | 60 | 0 | 0.0 | 0.0 | 0.00 | 0.00 | 0.00 | 89 | 1016.5 |
| 20260507090052 | 60 | 0 | 0.0 | 0.0 | 0.00 | 0.00 | 0.00 | 89 | 1016.6 |
| 20260507085533 | 60 | 0 | 0.0 | 1.7 | 0.00 | 0.00 | 0.00 | 89 | 1016.6 |
| 20260507085032 | 60 | 0 | 0.0 | 1.7 | 0.00 | 0.00 | 0.00 | 89 | 1016.7 |
| 20260507084545 | 60 | 0 | 0.0 | 1.7 | 0.00 | 0.00 | 0.00 | 89 | 1016.7 |
| 20260507084032 | 60 | 0 | 0.0 | 0.9 | 0.00 | 0.00 | 0.00 | 89 | 1016.8 |
| 20260507083532 | 60 | 336 | 0.0 | 0.9 | 0.00 | 0.00 | 0.00 | 89 | 1016.7 |
| 20260507083047 | 59 | 0 | 0.0 | 0.9 | 0.00 | 0.00 | 0.00 | 89 | 1016.8 |
| 20260507082531 | 59 | 0 | 0.0 | 0.9 | 0.00 | 0.00 | 0.00 | 89 | 1016.9 |
| 20260507082032 | 59 | 0 | 0.0 | 0.0 | 0.00 | 0.00 | 0.00 | 89 | 1016.8 |
| 20260507081554 | 59 | 0 | 0.0 | 0.9 | 0.00 | 0.00 | 0.00 | 89 | 1016.8 |
| 20260507081038 | 59 | 0 | 0.0 | 0.9 | 0.00 | 0.00 | 0.00 | 89 | 1017.0 |
| 20260507080534 | 59 | 0 | 0.0 | 0.9 | 0.00 | 0.00 | 0.00 | 89 | 1017.0 |
| 20260507080057 | 59 | 0 | 0.0 | 0.9 | 0.00 | 0.00 | 0.00 | 88 | 1017.0 |
| 20260507075534 | 59 | 0 | 0.0 | 0.0 | 0.00 | 0.00 | 0.00 | 88 | 1017.1 |
| 20260507075034 | 59 | 0 | 0.0 | 0.0 | 0.00 | 0.00 | 0.00 | 88 | 1017.1 |
| 20260507074557 | 59 | 0 | 0.0 | 0.0 | 0.00 | 0.00 | 0.00 | 88 | 1017.2 |
| 20260507074034 | 59 | 0 | 0.0 | 0.0 | 0.00 | 0.00 | 0.00 | 88 | 1017.2 |
| 20260507073535 | 59 | 0 | 0.0 | 0.0 | 0.00 | 0.00 | 0.00 | 88 | 1017.2 |
| 20260507073045 | 59 | 0 | 0.0 | 0.0 | 0.00 | 0.00 | 0.00 | 87 | 1017.2 |
| 20260507072535 | 59 | 0 | 0.0 | 0.0 | 0.00 | 0.00 | 0.00 | 87 | 1017.3 |
| 20260507072033 | 59 | 0 | 0.0 | 0.0 | 0.00 | 0.00 | 0.00 | 87 | 1017.3 |
| 20260507071546 | 59 | 0 | 0.0 | 0.0 | 0.00 | 0.00 | 0.00 | 87 | 1017.3 |
| 20260507071035 | 59 | 0 | 0.0 | 0.0 | 0.00 | 0.00 | 0.00 | 87 | 1017.3 |
| 20260507070535 | 59 | 0 | 0.0 | 0.9 | 0.00 | 0.00 | 0.00 | 87 | 1017.3 |
| 20260507070045 | 59 | 0 | 0.0 | 0.9 | 0.00 | 0.00 | 0.00 | 87 | 1017.3 |
| 20260507065534 | 59 | 0 | 0.0 | 0.9 | 0.00 | 0.00 | 0.00 | 87 | 1017.3 |
| 20260507065034 | 59 | 0 | 0.0 | 0.9 | 0.00 | 0.00 | 0.00 | 87 | 1017.3 |
| 20260507064547 | 59 | 0 | 0.0 | 0.0 | 0.00 | 0.00 | 0.00 | 87 | 1017.3 |
| 20260507064037 | 59 | 0 | 0.0 | 0.0 | 0.00 | 0.00 | 0.00 | 87 | 1017.4 |
| 20260507063533 | 59 | 0 | 0.0 | 0.0 | 0.00 | 0.00 | 0.00 | 87 | 1017.3 |
| 20260507063047 | 59 | 0 | 0.0 | 0.0 | 0.00 | 0.00 | 0.00 | 87 | 1017.4 |
| 20260507062535 | 59 | 0 | 0.0 | 0.0 | 0.00 | 0.00 | 0.00 | 87 | 1017.4 |
| 20260507062033 | 59 | 0 | 0.0 | 0.0 | 0.00 | 0.00 | 0.00 | 87 | 1017.4 |
| 20260507061544 | 59 | 0 | 0.0 | 0.0 | 0.00 | 0.00 | 0.00 | 87 | 1017.4 |
| 20260507061033 | 59 | 0 | 0.0 | 0.0 | 0.00 | 0.00 | 0.00 | 87 | 1017.4 |
| 20260507060535 | 59 | 0 | 0.0 | 0.0 | 0.00 | 0.00 | 0.00 | 87 | 1017.3 |
| 20260507060048 | 59 | 0 | 0.0 | 0.0 | 0.00 | 0.00 | 0.00 | 87 | 1017.4 |
| 20260507055551 | 59 | 0 | 0.0 | 0.9 | 0.00 | 0.00 | 0.00 | 87 | 1017.4 |
| 20260507055038 | 59 | 0 | 0.0 | 0.9 | 0.00 | 0.00 | 0.00 | 87 | 1017.4 |
| 20260507054621 | 59 | 0 | 0.0 | 0.9 | 0.00 | 0.00 | 0.00 | 87 | 1017.5 |
| 20260507054035 | 59 | 0 | 0.0 | 0.0 | 0.00 | 0.00 | 0.00 | 87 | 1017.5 |
| 20260507053535 | 59 | 0 | 0.0 | 0.0 | 0.00 | 0.00 | 0.00 | 87 | 1017.4 |
| 20260507053049 | 60 | 0 | 0.0 | 0.0 | 0.00 | 0.00 | 0.00 | 87 | 1017.4 |
| 20260507052533 | 60 | 0 | 0.0 | 0.0 | 0.00 | 0.00 | 0.00 | 87 | 1017.4 |